Regional Weather Roundup
Issued by NWS

Home | Current Version | Previous Version | Graphics & Text | Print | Product List | Glossary On
Versions: 1 2 3 4 5 6 7 8 9 10 11 12 13 14 15 16 17 18 19 20 21 22 23 24 25 26 27 28 29 30 31 32 33 34 35 36 37 38 39 40 41 42 43 44 45 46 47 48 49 50
000
ASUS43 KIND 280359
RWRIN

WEATHER ROUNDUP FOR INDIANA
NATIONAL WEATHER SERVICE INDIANAPOLIS IN
1100 PM EST FRI FEB 27 2015

NOTE: "FAIR" INDICATES FEW OR NO CLOUDS BELOW 12,000 FEET WITH NO
SIGNIFICANT WEATHER AND/OR OBSTRUCTIONS TO VISIBILITY.

* - STATION DOES NOT REPORT WEATHER SUCH AS PRECIPITATION OR FOG.

+ - STATION NOT QUALITY CONTROLLED BY THE NATIONAL WEATHER SERVICE.
    USE DATA WITH CAUTION...ESPECIALLY DEWPOINT AND RELATIVE
    HUMIDITY OBSERVATIONS.

INZ001>003-010>013-019-020-280500-
NORTHWEST INDIANA

CITY           SKY/WX    TMP DP  RH WIND       PRES   REMARKS
GARY /AIRPORT/ CLEAR      3  -6  66 SW5       30.69R WCI  -6
MONTICELLO +   MOCLDY     1  -4  80 CALM      30.67S
VALPARAISO     NOT AVBL

$$

LMZ046-743>745-280500-
SOUTHERN LAKE MICHIGAN

STATION/POSITION TIME  TEMP WIND        PRES
                       AIR  DIR/SP/G
                 (UTC) (F)  (DEG/KT/KT) (MB)
MICHIGAN CITY    0300    8  170/  7/  8   N/A

$$

INZ004-005-014>016-021>024-280500-
NORTH CENTRAL INDIANA

CITY           SKY/WX    TMP DP  RH WIND       PRES   REMARKS
GOSHEN         CLEAR      4  -4  69 CALM      30.66R
SOUTH BEND     CLEAR      3  -6  66 CALM      30.67R

$$

INZ006>009-017-018-025>027-280500-
NORTHEAST INDIANA

CITY           SKY/WX    TMP DP  RH WIND       PRES   REMARKS
ANGOLA *+      CLEAR      0  -6  78 CALM      30.63R
FORT WAYNE     PTCLDY     5  -1  76 CALM      30.66S

$$

INZ028-029-035-036-043>045-051>053-280500-
WEST CENTRAL INDIANA

CITY           SKY/WX    TMP DP  RH WIND       PRES   REMARKS
CRAWFORDSVL +  MOCLDY    -2 -10  69 CALM      30.67R
GREENCASTLE +  MOCLDY    10  -6  48 CALM      30.67R
LAFAYETTE      MOCLDY     3  -3  76 CALM      30.69R HAZE
TERRE HAUTE    MOCLDY     5  -2  72 N3        30.69R

$$

INZ030>032-037>040-046>048-054>057-064-065-280500-
CENTRAL INDIANA

CITY           SKY/WX    TMP DP  RH WIND       PRES   REMARKS
INDIANAPOLIS   CLOUDY    11  -1  58 CALM      30.66R
-EAGLE CREEK   MOCLDY     9   0  67 CALM      30.66R
KOKOMO *+      FAIR       3  -6  66 CALM      30.66S
MT COMFORT *+  MOCLDY     5  -6  61 CALM      30.66R
SHELBYVILLE    MOCLDY    10  -1  61 NE3       30.66R

$$

INZ033-034-041-042-049-050-058-059-280500-
EAST CENTRAL INDIANA

CITY           SKY/WX    TMP DP  RH WIND       PRES   REMARKS
MUNCIE         PTCLDY     6   0  76 CALM      30.65S

$$

INZ060-061-067>069-081>083-085>088-280500-
SOUTHWEST INDIANA

CITY           SKY/WX    TMP DP  RH WIND       PRES   REMARKS
EVANSVILLE     PTCLDY    20   8  60 NE6       30.67F WCI  12
HUNTINGBURG *+ PTCLDY    18   5  57 N8        30.67R WCI   7

$$

INZ062-063-066-070>080-084-089>092-280500-
SOUTH CENTRAL AND SOUTHEAST INDIANA

CITY           SKY/WX    TMP DP  RH WIND       PRES   REMARKS
BLOOMINGTON    MOCLDY     5  -3  69 CALM      30.64S
SEYMOUR +      PTCLDY    14   0  52 NE3       30.67S

$$



USA.gov is the U.S. government's official web portal to all federal, state and local government web resources and services.